Regional Weather Roundup
Issued by NWS

Home | Current Version | Previous Version | Graphics & Text | Print | Product List | Glossary On
Versions: 1 2 3 4 5 6 7 8 9 10 11 12 13 14 15 16 17 18 19 20 21 22 23 24 25 26 27 28 29 30 31 32 33 34 35 36 37 38 39 40 41 42 43 44 45 46 47 48 49 50
000
ASUS43 KBIS 291802
RWRND

NORTH DAKOTA REGIONAL WEATHER ROUNDUP
NATIONAL WEATHER SERVICE BISMARCK ND
100 PM CDT MON AUG 29 2016

NOTE: "FAIR" INDICATES FEW OR NO CLOUDS BELOW 12,000 FEET WITH NO
SIGNIFICANT WEATHER AND/OR OBSTRUCTIONS TO VISIBILITY.


NDZ001>003-009>011-017-291900-
NORTHWEST NORTH DAKOTA

CITY           SKY/WX    TMP DP  RH WIND       PRES   REMARKS
WILLISTON      SUNNY     71  42  35 VRB7      30.31F
6HR MIN TEMP:  50; 6HR MAX TEMP:  71;

MINOT          SUNNY     70  47  43 N9        30.28S
MINOT AFB      SUNNY     68  46  45 N8        30.27S
$$

NDZ018>021-031>035-040>046-291900-
SOUTHWEST NORTH DAKOTA

CITY           SKY/WX    TMP DP  RH WIND       PRES   REMARKS
BISMARCK       SUNNY     74  52  46 N9        30.28S
6HR MIN TEMP:  59; 6HR MAX TEMP:  74;

DICKINSON      SUNNY     74  45  35 NE10      30.29S
GARRISON         N/A     71  48  43 N5        30.29R
6HR MIN TEMP:  56; 6HR MAX TEMP:  72;

HETTINGER ARPT SUNNY     76  51  41 E10       30.31S
$$

NDZ004>008-012>016-024-026-027-054-291900-
NORTHEAST NORTH DAKOTA

CITY           SKY/WX    TMP DP  RH WIND       PRES   REMARKS
GRAND FORKS    MOSUNNY   76  64  66 N8        30.16F
GRND FRKS AFB  SUNNY     76  63  63 NW9       30.18F
DEVILS LAKE    SUNNY     70  50  49 NW9       30.25S
$$

NDZ022-023-025-028>030-036>039-047>053-291900-
SOUTHEAST NORTH DAKOTA

CITY           SKY/WX    TMP DP  RH WIND       PRES   REMARKS
FARGO          PTSUNNY   79  71  76 NW8       30.15S
6HR MIN TEMP:  70; 6HR MAX TEMP:  79;

JAMESTOWN      CLOUDY    73  61  65 VRB5      30.22S
$$





USA.gov is the U.S. government's official web portal to all federal, state and local government web resources and services.